Location: ?
(35.4064°N, 139.3593°E)
Time: 13:42:10
(UTC+00:00)

ARIANE 6 FM1 Upper Stage - Pass Details

Date: 18 December 2025
Orbit: 522 x 610 km, 62.0° (Epoch: 13 January)

Event Time Altitude Azimuth Distance (km) Brightness Sun altitude
Exits shadow 19:24:15 20° 42° (NE) 1,254 4.7 -28.1°
Drops below altitude 10° 19:25:36 10° 39° (NE) 1,779 5.5 -27.8°
Sets 19:27:47 0° 36° (NE) 2,664 6.4 -27.4°
